This is the latest recevied weather packets stored in our database for station/object K7LER. If no packets are shown the sender has not sent any weather packets the latest 10 day(s).
| Time | Temp. | Humidity | Pressure | Rain* | Wind** | Luminosity | Snow |
|---|---|---|---|---|---|---|---|
| 1788140136 | 67° F | 54% | 763.5 mmHg | 0 in | - | 63 W/m² | - |
| 1788139855 | 67° F | 53% | 763.6 mmHg | 0 in | - | 74 W/m² | - |
| 1788139535 | 67° F | 52% | 763.5 mmHg | 0 in | - | 83 W/m² | - |
| 1788139236 | 68° F | 52% | 763.6 mmHg | 0 in | - | 72 W/m² | - |
| 1788138968 | 68° F | 53% | 763.6 mmHg | 0 in | - | 74 W/m² | - |
| 1788138635 | 68° F | 53% | 763.6 mmHg | 0 in | - | 93 W/m² | - |
| 1788138335 | 68° F | 51% | 763.6 mmHg | 0 in | - | 107 W/m² | - |
| 1788138045 | 68° F | 52% | 763.6 mmHg | 0 in | - | 104 W/m² | - |
| 1788137736 | 69° F | 51% | 763.6 mmHg | 0 in | - | 88 W/m² | - |
| 1788137434 | 69° F | 52% | 763.6 mmHg | 0 in | - | 132 W/m² | - |
| 1788137153 | 69° F | 51% | 763.6 mmHg | 0 in | - | 148 W/m² | - |
| 1788136837 | 70° F | 54% | 763.6 mmHg | 0 in | - | 179 W/m² | - |
| 1788136533 | 70° F | 53% | 763.7 mmHg | 0 in | - | 171 W/m² | - |
| 1788136255 | 70° F | 52% | 763.8 mmHg | 0 in | - | 162 W/m² | - |
| 1788135938 | 70° F | 52% | 763.9 mmHg | 0 in | - | 199 W/m² | - |
| 1788135636 | 70° F | 50% | 763.8 mmHg | 0 in | - | 316 W/m² | - |
| 1788135361 | 70° F | 52% | 763.8 mmHg | 0 in | - | 420 W/m² | - |
| 1788135036 | 70° F | 53% | 763.9 mmHg | 0 in | - | 452 W/m² | - |
| 1788134736 | 69° F | 52% | 763.9 mmHg | 0 in | - | 346 W/m² | - |
| 1788134462 | 69° F | 53% | 763.9 mmHg | 0 in | - | 251 W/m² | - |
| 1788134136 | 70° F | 52% | 763.9 mmHg | 0 in | - | 506 W/m² | - |
| 1788133836 | 70° F | 53% | 763.9 mmHg | 0 in | - | 392 W/m² | - |
| 1788133552 | 70° F | 53% | 763.9 mmHg | 0 in | - | 466 W/m² | - |
| 1788133235 | 70° F | 53% | 763.9 mmHg | 0 in | - | 471 W/m² | - |
| 1788132935 | 70° F | 54% | 764.1 mmHg | 0 in | - | 584 W/m² | - |
* Rain latest hour (hover to see other rain measurements)
** Current wind speed in m/s (hover to see current wind gust speed)